Airport Information

KMFR - Rogue Valley Intl Medford Airport

KMFR 151353Z 01004KT 1/2SM R14/2800V3500FT FG VV003 02/01 A3008 RMK AO2 SLP191 T00170011


  • General Information

  • Coordinates: N 42°22'27"/ W 122°52'24"
  • Location: N/A
  • Surveyed Elevation: 1335 MSL

Operations

Flow Name Active Runways Conditions

Green background denotes normal operations.


Common Frequencies

Callsign Frequency Position Name

More at the Document Center


Charts